Wetbulb
59.13 59.15 59.13 58.73 58.55 58.21 58.04 58.10 58.28 58.45 58.45 58.55 58.42 58.36 58.35 58.36 58.21 58.30 58.33 58.43 58.32 58.30 58.29 58.44 58.48 58.37 58.19 57.84 57.46 57.12 56.71 56.40 56.15 55.99 55.74 55.42 54.73 53.98 53.17 52.52 52.42 52.31 51.98 51.44 50.94 50.43 49.97 49.78 49.54 49.14 48.93 48.81 48.54 48.10 47.34 45.91 44.68 43.49 42.30 41.29 40.83 40.30 39.67 38.99 38.65 38.42 38.50 38.88 39.46
58.78 58.93 58.99 58.78 58.41 58.15 58.03 58.05 58.18 58.38 58.50 58.64 58.69 58.69 58.57 58.57 58.49 58.45 58.48 58.56 58.58 58.62 58.64 58.69 58.61 58.41 57.95 57.67 57.48 57.28 56.92 56.58 56.14 55.82 55.58 55.30 54.87 54.11 53.26 52.70 52.46 52.11 51.67 51.21 50.98 50.40 49.78 49.23 48.55 47.95 47.47 47.34 47.47 46.80 45.45 43.82 43.53 43.06 41.88 39.77 39.43 39.15 38.92 38.84 38.88 39.03 39.27 39.54 39.81
58.59 58.65 58.77 58.67 58.39 58.01 57.71 57.73 58.06 58.37 58.59 58.84 58.90 58.88 58.88 58.75 58.69 58.59 58.55 58.67 58.78 58.61 58.36 58.37 58.38 58.16 57.84 57.42 57.46 57.29 56.99 56.71 56.22 55.87 55.51 55.14 54.92 54.34 53.63 52.98 52.50 51.96 51.50 51.29 50.97 50.38 49.60 49.11 48.25 47.60 47.02 46.26 46.44 45.90 44.68 42.99 42.96 42.62 41.68 39.84 38.69 38.25 38.18 37.96 38.39 38.77 39.12 39.50 39.92
58.34 58.44 58.49 58.48 58.25 58.06 57.97 57.88 58.13 58.36 58.56 58.79 59.02 59.06 58.99 58.86 58.79 58.59 58.40 58.29 58.28 58.04 57.99 58.39 58.34 58.24 57.69 57.14 57.13 56.98 56.78 56.63 56.33 55.86 55.49 55.27 55.00 54.25 53.38 52.57 52.38 51.91 51.31 50.96 50.63 50.16 49.57 48.84 47.90 47.51 47.20 46.17 45.94 45.81 45.00 42.80 42.50 42.33 41.95 40.71 39.14 38.18 37.79 37.83 38.12 38.46 38.83 39.19 39.89
57.99 58.29 58.51 58.41 58.26 58.24 58.35 58.39 58.33 58.46 58.64 58.86 58.78 58.76 58.75 58.83 58.62 58.29 57.97 57.84 57.89 58.13 58.27 58.47 58.33 57.98 57.52 57.13 56.85 56.59 56.28 56.09 55.98 55.72 55.35 55.30 54.91 54.28 53.49 52.60 52.07 51.80 51.61 51.29 50.39 49.58 48.96 48.42 47.64 47.43 47.11 46.17 45.76 45.72 45.23 43.26 42.23 41.87 41.53 40.36 39.70 38.65 37.92 37.96 38.04 38.21 38.51 38.88 39.27
57.77 58.18 58.50 58.55 58.45 58.49 58.52 58.60 58.66 58.72 58.76 58.85 58.62 58.56 58.47 58.25 57.89 57.73 57.71 57.87 58.24 58.40 58.33 58.14 57.92 57.59 57.11 56.56 56.34 56.03 55.63 55.29 55.31 55.52 55.54 55.37 55.00 54.24 53.34 52.54 52.10 51.99 51.91 51.58 50.52 49.38 48.39 47.86 47.42 47.43 47.38 46.89 46.17 46.03 45.14 42.59 41.96 41.51 40.71 39.73 39.65 39.07 38.30 37.66 37.75 38.04 38.40 38.67 38.71
57.79 58.02 58.23 58.31 58.32 58.38 58.54 58.58 58.69 58.82 58.76 58.72 58.51 58.43 58.18 57.89 57.74 57.77 57.85 58.07 58.21 57.94 57.58 57.54 57.44 57.10 56.61 55.72 55.64 55.63 55.56 55.27 55.10 55.22 55.38 55.16 54.64 53.94 53.22 52.37 51.79 51.56 51.30 50.72 49.60 48.69 48.03 47.73 47.52 47.25 47.02 46.62 45.90 44.96 43.94 42.50 42.04 41.32 40.39 39.36 39.28 39.25 38.98 37.77 37.80 37.88 38.10 38.29 38.15
57.60 57.95 58.16 58.21 58.14 58.44 58.48 58.51 58.58 58.52 58.58 58.51 58.43 58.24 58.05 57.97 57.91 57.93 57.98 58.14 57.93 57.48 57.13 57.19 56.82 56.55 56.17 55.69 55.54 55.60 55.54 55.13 54.78 54.76 54.74 54.59 54.06 53.37 52.71 51.96 51.14 50.66 50.19 49.29 48.59 48.10 47.87 47.88 47.88 47.20 46.39 46.03 45.00 43.97 43.10 42.73 42.44 41.58 40.58 39.86 39.40 39.09 38.84 38.25 38.24 38.07 37.84 37.81 37.49
57.09 57.57 58.02 58.15 58.28 58.38 58.54 58.46 58.46 58.45 58.45 58.54 58.39 58.24 58.03 58.02 58.09 57.88 57.76 57.80 57.50 57.04 56.62 56.58 56.10 55.99 55.85 55.48 55.22 55.18 55.02 54.67 54.24 54.24 54.22 54.27 53.37 52.87 52.31 51.83 50.88 50.10 49.46 48.94 48.68 48.41 48.05 47.70 47.34 46.80 46.17 45.54 44.55 43.30 42.52 42.63 42.20 41.57 40.83 40.21 39.40 38.86 38.37 37.85 37.97 37.80 37.47 37.31 36.96
56.62 57.12 57.58 57.92 58.03 58.16 58.28 58.26 58.31 58.40 58.46 58.54 58.37 58.16 58.02 58.06 57.91 57.74 57.68 57.50 56.89 56.21 55.78 56.05 55.83 55.63 55.35 54.96 54.86 54.53 54.44 54.49 54.01 53.56 53.26 53.29 52.59 52.09 51.62 51.22 50.60 49.71 48.75 48.18 47.96 47.56 47.20 46.80 46.57 46.39 46.08 45.45 44.42 43.01 42.18 42.55 42.11 41.59 41.01 40.59 39.35 38.30 37.57 37.17 37.14 37.13 37.18 37.22 37.31
56.27 56.77 57.15 57.50 57.66 57.87 57.93 57.77 57.92 58.24 58.38 58.38 58.06 57.88 57.88 57.90 57.65 57.37 57.10 56.68 55.88 55.18 55.19 55.80 55.60 55.28 54.94 54.55 54.20 54.12 54.12 54.47 54.03 53.37 52.75 52.41 51.86 51.29 50.73 50.44 49.74 48.74 47.68 46.84 46.53 46.18 46.04 46.04 46.13 45.86 45.50 45.13 44.07 42.71 41.92 42.38 42.46 41.78 40.95 40.89 39.37 38.09 37.12 36.72 37.01 37.15 37.29 37.30 37.35
55.98 56.45 56.94 57.36 57.34 57.35 57.44 57.36 57.56 57.93 58.09 58.18 57.93 57.77 57.58 57.64 57.20 56.67 56.14 55.53 55.08 54.91 54.91 55.40 55.11 54.94 54.77 54.36 54.36 54.31 54.35 53.92 53.36 52.72 52.16 51.79 51.30 50.77 50.23 49.95 49.25 48.33 47.23 46.22 46.00 45.87 45.77 45.82 46.09 45.86 45.32 44.60 43.98 42.93 42.14 42.22 42.45 41.94 41.25 40.79 39.51 38.27 37.30 36.62 37.21 37.71 37.88 37.71 37.18
55.67 55.97 56.49 56.76 56.87 56.96 57.08 57.09 57.40 57.66 57.74 57.88 57.39 57.29 57.31 57.00 56.25 55.72 55.22 54.74 54.82 54.82 54.63 54.57 54.24 54.39 54.44 54.40 54.40 54.09 53.53 52.88 52.32 51.91 51.54 51.10 50.77 50.31 49.90 49.65 48.83 47.88 47.00 46.39 46.18 46.18 46.13 45.96 46.04 45.64 44.93 43.94 43.45 42.97 42.45 42.09 42.11 41.86 41.36 40.60 39.49 38.60 37.89 37.22 37.44 37.75 37.81 37.30 36.92
55.20 55.49 55.83 56.22 56.22 56.50 56.71 56.83 57.07 57.19 57.23 57.14 56.83 56.78 56.54 56.04 55.29 55.01 54.86 54.47 54.41 54.04 53.75 53.63 53.52 53.80 54.14 54.24 53.88 53.20 52.62 52.05 51.61 51.32 51.20 50.89 50.34 49.96 49.62 49.28 48.47 47.70 47.04 46.79 46.53 46.48 46.40 46.05 46.04 45.77 44.93 43.55 42.98 42.66 42.39 41.95 42.04 41.94 41.56 40.67 39.60 38.93 38.51 38.32 37.64 37.36 37.25 37.02 37.10
54.75 54.98 55.18 55.56 55.83 56.18 56.42 56.42 56.55 56.54 56.39 56.16 56.12 55.95 55.63 55.04 54.50 54.49 54.55 54.20 53.74 53.37 53.11 53.06 53.22 53.42 53.46 53.24 53.06 52.64 52.13 51.67 51.12 50.87 50.70 50.49 50.11 49.81 49.56 49.27 48.67 48.08 47.43 47.09 46.74 46.53 46.44 46.09 45.87 45.47 44.89 43.73 42.98 42.57 42.13 41.75 42.16 42.14 41.73 40.87 39.90 39.31 38.91 38.58 37.46 37.02 37.04 37.11 37.54
54.11 54.30 54.62 55.12 55.47 55.88 55.97 55.97 56.11 55.87 55.73 55.53 55.16 54.89 54.71 54.48 54.05 54.08 54.11 53.79 53.35 52.84 52.64 52.52 52.80 52.95 52.89 52.83 52.75 52.30 51.66 51.08 50.70 50.50 50.28 49.95 49.72 49.63 49.54 49.50 48.93 48.37 47.77 47.26 46.66 46.44 46.22 46.13 45.83 45.34 44.71 43.99 43.17 42.55 42.03 41.55 42.15 42.22 41.82 41.06 40.11 39.52 39.01 38.30 37.46 37.10 37.06 37.32 37.63
53.47 53.65 54.15 54.80 55.12 55.44 55.53 55.61 55.71 55.48 55.12 54.89 54.15 54.10 54.13 53.93 53.62 53.55 53.71 53.81 53.22 52.67 52.30 52.28 52.71 52.82 52.74 52.57 52.19 51.68 51.17 50.60 50.45 50.29 50.11 49.81 49.54 49.38 49.33 49.15 48.87 48.39 47.70 47.05 46.31 45.87 45.74 45.78 45.69 45.34 44.75 43.89 42.99 42.41 41.92 41.53 41.96 41.96 41.69 40.91 40.11 39.52 39.08 38.46 37.74 37.31 37.32 37.71 37.93
52.81 53.22 53.75 54.45 54.71 54.89 54.99 55.13 55.22 54.95 54.50 53.93 53.40 53.43 53.55 53.58 53.14 53.17 53.40 53.61 53.11 52.58 52.13 52.26 52.55 52.54 52.26 51.75 51.46 51.11 50.69 50.20 50.32 50.37 50.18 49.87 49.28 48.89 48.68 48.45 48.36 47.88 47.23 46.75 46.13 45.69 45.39 45.34 45.30 44.90 44.44 43.63 42.73 42.10 41.78 41.46 41.46 41.37 41.06 40.59 39.94 39.53 39.16 38.76 38.06 37.75 37.77 38.01 38.80
52.38 52.87 53.40 53.96 54.27 54.40 54.40 54.54 54.49 54.15 53.57 52.99 52.77 52.72 52.76 52.84 52.61 52.69 52.97 53.30 53.19 52.74 52.40 52.14 52.04 51.74 51.36 50.61 50.57 50.69 50.72 50.52 50.36 50.15 49.76 49.46 48.90 48.34 48.03 47.90 47.48 47.10 46.66 46.36 46.13 45.78 45.48 45.34 44.99 44.46 43.84 43.29 42.43 41.96 41.55 41.28 41.18 40.91 40.47 40.08 39.67 39.41 39.33 39.20 38.88 38.58 38.65 38.93 39.50
52.20 52.60 53.13 53.69 53.87 54.00 53.96 53.96 53.70 53.22 52.59 52.14 51.97 51.88 51.88 51.87 52.25 52.51 52.75 52.92 53.07 52.75 52.19 51.42 51.12 50.78 50.34 49.67 49.81 50.17 50.52 50.37 50.17 49.77 49.24 48.75 48.15 47.60 47.18 47.02 46.48 46.31 46.22 46.09 45.83 45.48 45.17 45.00 44.56 44.08 43.55 43.21 42.36 41.68 41.26 40.95 40.75 40.61 40.31 39.71 39.55 39.60 39.78 39.67 39.50 39.34 39.54 39.89 39.93
51.94 52.43 52.91 53.22 53.30 53.26 53.17 52.86 52.42 51.80 51.26 51.13 50.99 50.99 51.12 51.34 52.11 52.58 52.71 52.65 52.23 51.66 51.14 50.76 50.35 50.00 49.61 49.40 49.49 49.57 49.55 49.39 49.10 48.78 48.33 47.86 47.20 46.79 46.46 46.34 45.92 45.56 45.41 45.37 45.25 44.94 44.64 44.38 43.95 43.65 43.29 42.98 42.60 41.92 41.11 40.65 40.41 40.47 40.43 39.95 39.64 39.67 39.83 39.93 39.79 39.70 39.70 39.61 39.94
51.23 51.63 51.76 51.85 51.94 51.80 51.53 50.95 50.42 50.06 49.97 49.97 50.23 50.58 50.84 50.81 51.39 51.42 51.16 50.53 50.38 50.22 50.12 49.85 49.30 49.12 49.07 49.24 49.01 48.60 48.14 48.06 47.71 47.66 47.58 47.37 46.93 46.68 46.51 46.21 45.26 44.85 44.66 44.48 43.94 43.86 43.75 43.42 43.30 43.24 43.13 42.70 40.64 40.77 41.38 40.66 40.51 40.43 40.37 40.17 39.95 39.84 39.77 39.89 39.63 39.27 38.82 38.33 38.73
49.89 49.58 49.27 49.62 50.16 50.16 49.75 48.86 48.68 48.81 49.04 49.17 49.83 50.53 51.05 50.75 50.01 49.39 48.98 48.80 49.13 49.12 48.78 47.95 47.69 47.90 48.07 47.93 47.78 47.46 47.05 46.91 46.66 46.67 46.81 46.85 46.56 46.13 45.74 45.35 44.56 44.28 44.00 43.45 40.71 41.03 42.17 41.79 41.30 41.28 40.98 39.57 38.69 39.86 41.10 40.67 40.73 40.51 40.18 39.94 39.95 39.77 39.34 38.72 38.26 38.12 37.86 37.51 37.69
47.29 47.07 46.93 47.20 47.83 48.10 48.10 47.79 47.92 48.19 48.50 48.68 49.22 49.62 49.62 48.99 48.18 47.64 47.33 47.55 47.64 47.28 46.93 46.53 46.67 46.49 46.35 46.44 46.69 46.75 46.61 46.40 46.11 45.69 45.31 45.04 44.91 44.57 44.18 44.15 44.04 43.81 43.26 42.25 39.51 39.74 40.82 40.38 39.05 38.67 38.51 37.81 39.29 40.48 41.07 40.94 39.75 39.58 39.77 39.48 39.21 38.98 38.50 37.64 37.11 37.04 37.10 37.00 37.08
45.85 46.03 46.08 46.03 46.34 46.89 47.34 47.56 47.79 47.74 47.65 47.78 47.87 47.74 47.43 46.80 46.80 46.31 45.91 45.60 45.51 45.37 45.37 45.38 45.34 45.17 45.13 45.57 45.95 46.28 46.23 45.90 45.22 44.31 43.61 43.23 43.19 43.24 43.29 43.42 43.29 43.02 42.66 42.34 42.12 42.61 42.88 42.09 40.54 39.51 39.00 39.22 40.33 40.88 40.18 37.91 38.10 38.97 39.74 39.48 38.98 38.30 37.56 36.70 36.18 36.14 36.36 36.42 36.56
45.35 45.71 45.76 45.53 46.03 46.52 46.75 46.89 46.75 46.39 46.08 46.13 46.22 45.95 45.37 44.70 44.79 44.66 44.30 43.68 43.29 43.34 43.61 43.84 44.07 44.35 44.57 44.79 44.91 44.83 44.62 44.49 43.75 43.06 42.65 42.49 42.54 42.63 42.71 42.92 42.84 42.44 42.19 42.65 43.56 44.21 44.35 43.91 42.80 41.67 40.90 40.60 41.04 40.49 39.16 36.92 38.59 39.53 39.80 39.31 38.77 37.97 37.02 36.16 35.66 35.55 35.66 35.81 36.03
45.21 45.17 45.03 45.35 45.71 45.58 45.22 44.95 44.86 44.60 44.42 44.56 44.61 44.03 43.41 43.24 43.65 43.39 42.81 41.94 41.42 41.35 41.88 42.59 43.21 43.96 44.40 43.93 43.55 42.90 42.43 42.25 42.30 42.26 42.10 41.83 41.71 41.83 42.13 42.71 42.26 41.79 42.02 43.33 44.52 45.00 45.18 44.87 44.08 43.07 41.93 41.11 41.51 40.62 39.28 38.53 39.34 39.60 39.33 38.25 38.01 37.50 36.81 36.01 35.34 35.16 35.36 35.76 36.16
44.76 44.45 44.45 44.95 44.50 43.87 43.42 43.38 43.66 43.53 43.31 43.05 42.75 42.26 42.00 42.24 42.60 42.13 41.38 40.30 40.18 40.36 40.64 41.05 41.67 42.51 42.91 42.40 41.83 41.14 40.55 40.52 41.15 41.46 41.47 41.35 41.10 41.01 40.82 40.93 41.20 41.70 42.59 44.09 45.09 45.57 45.70 45.48 44.83 43.91 42.78 41.41 41.20 40.46 39.67 39.09 39.21 39.14 38.67 37.63 37.28 36.89 36.36 35.92 35.57 35.60 35.96 36.23 36.55
43.87 43.96 44.27 44.14 43.15 42.53 42.54 42.72 42.73 42.29 41.67 41.19 41.16 40.99 40.91 41.18 40.93 40.63 40.18 40.06 39.85 39.56 39.39 39.28 40.05 40.54 40.68 40.50 39.69 39.28 39.14 39.48 40.31 40.71 40.71 40.43 40.10 39.88 39.75 39.65 39.99 41.09 42.79 44.70 45.52 45.95 45.95 45.78 45.31 44.70 43.74 42.26 40.79 39.86 39.40 39.37 38.76 38.49 38.07 37.49 37.17 36.75 36.34 36.26 36.48 36.62 36.56 36.56 36.58
43.42 43.78 43.74 43.02 42.13 41.59 41.24 40.89 40.59 40.34 40.14 40.24 40.34 40.43 40.44 40.32 39.93 39.69 39.49 39.17 38.49 38.08 37.84 37.84 38.64 38.82 38.48 38.15 38.61 38.90 39.16 39.51 39.78 39.90 39.78 39.54 39.08 38.97 39.04 39.32 39.51 40.71 42.78 45.09 45.82 46.08 46.21 46.08 45.82 45.48 44.74 43.42 41.00 39.52 38.81 38.83 38.61 38.29 37.94 37.53 37.08 36.62 36.37 36.30 36.33 36.51 36.73 36.83 36.60
42.80 42.98 42.71 41.73 40.76 39.82 38.98 38.38 38.52 38.97 39.49 40.04 40.13 40.09 40.01 39.55 38.74 38.03 37.41 36.91 36.85 37.05 37.18 36.79 37.13 36.75 36.12 35.96 36.50 36.85 37.20 38.06 39.41 39.77 39.55 39.31 39.28 38.91 38.31 38.03 38.43 39.89 42.28 45.30 45.90 46.21 46.33 46.42 46.30 46.17 45.65 44.73 41.44 39.18 38.00 38.04 37.96 37.88 37.72 37.32 36.75 36.37 36.16 36.25 36.12 36.32 36.53 36.52 36.39
41.81 41.78 41.20 40.27 38.94 37.75 37.15 37.15 37.88 38.57 39.16 39.53 39.50 39.16 38.38 37.20 36.08 35.46 35.40 35.69 36.24 36.47 36.56 36.43 36.14 35.60 35.15 34.98 35.15 35.36 35.82 36.37 37.10 37.91 38.67 39.35 38.72 37.93 37.20 36.94 37.23 38.97 41.88 45.52 45.95 46.29 46.60 46.64 46.73 46.65 46.48 45.78 41.64 38.51 36.81 37.26 36.96 37.03 36.99 36.56 36.07 35.97 36.06 36.13 35.88 35.94 36.05 36.20 36.43
40.88 40.62 39.88 38.64 37.32 36.55 36.44 36.97 37.65 38.24 38.49 38.50 38.08 37.19 36.17 35.06 34.58 34.48 34.76 35.41 35.67 35.80 35.86 36.03 35.77 35.37 34.92 34.63 34.65 34.80 35.17 35.90 36.71 37.62 38.44 38.74 37.98 36.97 36.17 35.80 36.16 38.75 42.27 45.26 45.77 46.25 46.51 46.64 46.73 46.82 46.74 46.39 41.11 37.61 35.84 36.05 35.95 35.82 35.70 35.57 35.40 35.42 35.59 35.72 35.57 35.69 36.02 36.34 36.58
39.82 39.30 38.44 37.43 36.58 36.23 36.33 36.83 37.38 37.50 37.43 36.92 36.20 35.49 35.02 34.77 34.55 34.47 34.25 34.04 33.43 33.13 33.04 33.11 33.15 33.02 32.91 33.08 33.90 34.65 35.36 35.88 35.25 35.23 35.68 36.48 36.63 36.15 35.30 34.45 34.93 38.09 41.92 44.49 45.30 45.86 46.25 46.38 46.51 46.68 46.51 45.61 39.73 36.42 34.94 35.17 35.05 34.84 34.68 34.58 34.77 34.98 35.28 35.54 35.56 35.98 36.47 36.89 36.76
38.96 38.26 37.36 36.54 36.22 36.23 36.37 36.60 36.85 36.79 36.30 35.58 34.72 34.19 33.98 34.08 33.91 33.85 33.88 33.89 32.77 31.76 30.92 30.57 30.49 30.75 31.11 31.69 32.98 34.16 34.69 34.34 33.56 33.59 34.11 34.89 35.41 35.44 34.96 33.98 34.28 37.25 41.00 43.47 44.45 45.13 45.55 45.76 46.02 46.28 45.56 42.86 37.83 35.36 34.55 34.63 34.40 34.19 34.16 34.34 34.59 34.81 35.11 35.64 35.87 36.10 36.31 36.61 36.51
38.41 37.56 36.65 36.01 35.89 35.95 36.18 36.33 36.36 36.00 35.37 34.61 33.82 33.29 32.95 32.84 32.73 33.27 34.09 34.66 33.39 32.30 31.43 31.07 31.29 31.66 32.01 32.33 32.89 33.60 33.81 32.90 32.90 33.18 33.66 34.39 34.61 34.39 33.97 33.59 33.85 36.54 39.98 42.42 43.51 44.31 44.86 45.24 45.62 45.51 43.89 39.85 36.39 34.91 34.68 34.56 34.24 34.02 34.11 34.54 34.91 35.26 35.41 35.38 35.42 35.46 35.64 35.76 35.79
37.96 37.33 36.48 35.87 35.66 35.75 35.86 36.01 35.79 35.28 34.61 33.70 33.22 32.79 32.46 32.33 32.24 32.78 33.53 34.30 33.11 32.40 31.91 31.44 31.73 31.80 31.74 31.58 31.50 31.54 31.80 32.07 32.84 33.49 34.02 34.66 34.25 33.89 33.61 33.49 33.30 35.37 38.58 41.52 42.80 43.60 44.31 44.81 45.24 44.32 41.77 37.22 35.41 34.88 34.72 34.55 34.47 34.28 34.37 34.62 34.96 35.16 35.21 35.22 35.09 35.12 35.00 34.87 34.76
37.38 37.12 36.58 35.96 35.65 35.56 35.57 35.78 35.34 34.55 33.63 32.80 32.33 31.92 31.71 31.71 31.86 32.35 33.11 33.96 32.75 32.18 31.81 31.11 30.80 30.53 30.45 30.66 30.65 30.58 30.85 31.89 33.06 33.50 33.55 33.54 33.28 33.35 33.51 33.73 33.19 34.47 37.06 40.64 42.24 43.22 43.93 44.64 45.08 43.28 40.13 36.55 35.64 35.23 35.13 34.84 34.69 34.64 34.62 34.69 34.89 34.95 35.00 35.22 35.13 34.92 34.71 34.52 35.35
36.83 36.84 36.61 36.09 35.50 35.28 35.20 35.19 34.63 33.85 32.88 32.10 31.66 31.23 30.97 30.98 31.17 31.40 31.62 31.82 31.17 31.41 31.45 30.76 30.14 30.13 30.59 31.53 31.47 31.27 31.18 31.51 32.46 32.94 32.89 32.22 32.88 33.76 34.23 33.75 33.39 34.36 36.66 40.30 42.05 43.09 43.85 44.77 44.96 43.09 40.25 37.47 36.48 36.05 35.76 35.43 35.09 34.95 34.86 34.90 35.23 35.00 34.50 34.23 34.13 34.13 34.16 34.30 36.67
36.20 36.33 36.24 35.87 35.37 34.98 34.68 34.18 33.46 32.79 32.34 31.96 31.62 31.42 31.28 31.30 31.02 30.51 29.88 29.35 29.51 30.10 30.58 30.46 30.43 31.11 32.17 32.99 31.82 31.10 30.65 30.46 30.89 31.92 32.89 33.17 34.43 35.42 35.30 33.41 33.13 34.08 36.43 40.03 42.19 43.38 44.15 45.04 45.00 43.21 40.68 38.11 37.24 36.84 36.55 36.09 35.79 35.41 35.22 35.22 35.52 35.34 34.52 33.30 32.72 32.76 33.04 33.13 35.79
35.44 35.66 35.64 35.40 34.94 34.48 33.80 32.99 32.07 31.78 31.73 31.79 31.69 31.60 31.47 31.00 29.99 29.54 29.48 29.64 29.99 30.33 30.75 30.91 31.11 31.70 32.53 32.89 31.79 31.03 30.53 30.23 30.37 31.18 32.47 33.96 34.87 35.30 34.66 32.81 32.59 33.26 35.16 38.76 42.05 43.76 44.66 45.52 45.00 43.24 40.83 38.23 37.64 37.41 37.21 36.80 36.55 36.13 35.63 34.96 34.93 34.88 34.44 33.31 32.65 32.49 32.65 32.61 33.15
MSLP
1011.64 1011.80 1012.04 1012.28 1012.52 1012.76 1013.04 1013.24 1013.44 1013.60 1013.80 1013.96 1014.16 1014.36 1014.52 1014.68 1014.84 1015.00 1015.16 1015.32 1015.36 1015.44 1015.52 1015.64 1015.72 1015.80 1015.96 1016.20 1016.40 1016.56 1016.68 1016.80 1016.96 1017.12 1017.24 1017.36 1017.56 1017.72 1017.92 1018.16 1018.36 1018.52 1018.72 1018.92 1019.12 1019.32 1019.48 1019.68 1019.92 1020.08 1020.20 1020.36 1020.44 1020.60 1020.76 1020.96 1021.20 1021.36 1021.52 1021.68 1021.84 1022.08 1022.24 1022.40 1022.48 1022.56 1022.60 1022.60 1022.60
1011.56 1011.72 1011.92 1012.20 1012.48 1012.72 1013.00 1013.24 1013.44 1013.60 1013.76 1013.88 1014.04 1014.20 1014.36 1014.52 1014.68 1014.84 1015.04 1015.12 1015.20 1015.24 1015.40 1015.52 1015.64 1015.80 1015.92 1016.08 1016.28 1016.44 1016.60 1016.76 1016.92 1017.04 1017.20 1017.36 1017.48 1017.64 1017.88 1018.12 1018.28 1018.48 1018.64 1018.80 1019.04 1019.24 1019.44 1019.64 1019.84 1020.04 1020.20 1020.36 1020.48 1020.64 1020.80 1021.00 1021.16 1021.36 1021.52 1021.64 1021.80 1021.96 1022.16 1022.28 1022.36 1022.40 1022.44 1022.48 1022.48
1011.48 1011.68 1011.88 1012.12 1012.36 1012.64 1012.92 1013.20 1013.36 1013.52 1013.68 1013.80 1013.92 1014.08 1014.28 1014.44 1014.56 1014.72 1014.88 1014.96 1015.08 1015.20 1015.36 1015.48 1015.60 1015.72 1015.88 1016.00 1016.16 1016.32 1016.48 1016.64 1016.84 1017.00 1017.16 1017.32 1017.48 1017.64 1017.88 1018.08 1018.24 1018.44 1018.64 1018.76 1018.92 1019.12 1019.36 1019.56 1019.80 1019.92 1020.12 1020.32 1020.44 1020.64 1020.88 1021.08 1021.20 1021.32 1021.44 1021.60 1021.72 1021.88 1022.08 1022.20 1022.28 1022.40 1022.48 1022.48 1022.44
1011.44 1011.64 1011.84 1012.04 1012.24 1012.48 1012.76 1012.96 1013.20 1013.40 1013.56 1013.72 1013.92 1014.08 1014.20 1014.36 1014.48 1014.60 1014.72 1014.92 1015.08 1015.20 1015.28 1015.36 1015.44 1015.60 1015.80 1015.92 1016.12 1016.28 1016.40 1016.60 1016.76 1016.92 1017.08 1017.28 1017.48 1017.64 1017.88 1018.08 1018.24 1018.40 1018.60 1018.76 1018.96 1019.20 1019.36 1019.56 1019.80 1019.92 1020.04 1020.20 1020.36 1020.56 1020.80 1021.08 1021.20 1021.28 1021.36 1021.52 1021.64 1021.76 1021.92 1022.04 1022.24 1022.40 1022.48 1022.48 1022.40
1011.40 1011.56 1011.72 1011.92 1012.12 1012.36 1012.56 1012.80 1013.04 1013.20 1013.44 1013.64 1013.84 1014.08 1014.20 1014.32 1014.44 1014.60 1014.72 1014.92 1015.00 1015.08 1015.12 1015.20 1015.36 1015.52 1015.72 1015.92 1016.08 1016.24 1016.40 1016.60 1016.76 1016.92 1017.08 1017.28 1017.48 1017.64 1017.84 1018.08 1018.28 1018.44 1018.64 1018.80 1019.00 1019.20 1019.36 1019.52 1019.76 1019.88 1020.00 1020.16 1020.28 1020.44 1020.64 1020.92 1021.16 1021.24 1021.36 1021.48 1021.60 1021.64 1021.76 1021.92 1022.16 1022.36 1022.40 1022.44 1022.40
1011.36 1011.48 1011.64 1011.88 1012.08 1012.32 1012.48 1012.72 1012.92 1013.12 1013.32 1013.56 1013.80 1013.92 1014.08 1014.28 1014.40 1014.52 1014.64 1014.76 1014.76 1014.88 1015.00 1015.16 1015.32 1015.48 1015.68 1015.88 1016.08 1016.24 1016.44 1016.60 1016.72 1016.88 1017.04 1017.20 1017.40 1017.60 1017.80 1018.08 1018.20 1018.40 1018.60 1018.76 1018.96 1019.12 1019.32 1019.48 1019.68 1019.80 1019.92 1020.12 1020.28 1020.40 1020.60 1020.92 1021.12 1021.24 1021.36 1021.48 1021.56 1021.64 1021.72 1021.88 1022.08 1022.20 1022.32 1022.36 1022.36
1011.28 1011.48 1011.64 1011.84 1012.04 1012.24 1012.44 1012.68 1012.88 1013.08 1013.28 1013.48 1013.64 1013.80 1013.92 1014.08 1014.24 1014.36 1014.44 1014.48 1014.64 1014.84 1015.00 1015.16 1015.32 1015.48 1015.64 1015.88 1016.04 1016.20 1016.36 1016.56 1016.68 1016.84 1016.96 1017.16 1017.36 1017.60 1017.80 1018.00 1018.20 1018.36 1018.52 1018.72 1018.92 1019.12 1019.28 1019.44 1019.64 1019.80 1019.92 1020.08 1020.24 1020.40 1020.60 1020.76 1021.00 1021.16 1021.24 1021.36 1021.44 1021.56 1021.64 1021.76 1021.92 1022.08 1022.20 1022.20 1022.28
1011.24 1011.40 1011.60 1011.80 1012.00 1012.20 1012.36 1012.60 1012.80 1013.04 1013.20 1013.36 1013.52 1013.64 1013.80 1013.92 1014.08 1014.20 1014.36 1014.48 1014.64 1014.76 1014.92 1015.08 1015.24 1015.40 1015.60 1015.80 1015.96 1016.08 1016.24 1016.48 1016.64 1016.84 1017.00 1017.20 1017.36 1017.60 1017.80 1017.96 1018.16 1018.36 1018.52 1018.72 1018.92 1019.12 1019.32 1019.48 1019.56 1019.72 1019.88 1020.04 1020.20 1020.36 1020.52 1020.64 1020.76 1020.92 1021.04 1021.16 1021.32 1021.44 1021.52 1021.60 1021.76 1021.88 1021.96 1022.04 1022.12
1011.32 1011.48 1011.64 1011.80 1012.00 1012.16 1012.36 1012.56 1012.72 1012.92 1013.12 1013.28 1013.44 1013.56 1013.68 1013.80 1013.96 1014.12 1014.28 1014.40 1014.52 1014.72 1014.92 1015.08 1015.20 1015.40 1015.60 1015.80 1015.92 1016.04 1016.20 1016.40 1016.64 1016.80 1017.00 1017.20 1017.36 1017.60 1017.76 1017.92 1018.08 1018.32 1018.52 1018.72 1018.92 1019.04 1019.20 1019.36 1019.48 1019.64 1019.80 1019.92 1020.08 1020.28 1020.48 1020.56 1020.64 1020.76 1020.88 1021.00 1021.16 1021.36 1021.48 1021.52 1021.56 1021.64 1021.76 1021.92 1021.96
1011.36 1011.48 1011.68 1011.88 1012.00 1012.16 1012.36 1012.56 1012.72 1012.88 1013.04 1013.16 1013.32 1013.48 1013.64 1013.80 1013.92 1014.08 1014.24 1014.36 1014.52 1014.76 1014.92 1015.08 1015.24 1015.44 1015.64 1015.76 1015.88 1016.04 1016.20 1016.36 1016.60 1016.80 1017.00 1017.20 1017.36 1017.52 1017.68 1017.88 1018.08 1018.28 1018.48 1018.72 1018.84 1019.00 1019.20 1019.36 1019.48 1019.64 1019.76 1019.88 1020.04 1020.20 1020.36 1020.48 1020.60 1020.64 1020.72 1020.88 1021.04 1021.20 1021.36 1021.48 1021.48 1021.56 1021.64 1021.72 1021.80
1011.32 1011.48 1011.64 1011.80 1012.00 1012.20 1012.40 1012.60 1012.76 1012.92 1013.04 1013.20 1013.36 1013.48 1013.64 1013.80 1013.92 1014.08 1014.24 1014.40 1014.64 1014.84 1014.96 1015.08 1015.20 1015.44 1015.60 1015.72 1015.88 1016.04 1016.20 1016.36 1016.56 1016.76 1016.96 1017.16 1017.32 1017.48 1017.68 1017.88 1018.08 1018.28 1018.48 1018.64 1018.88 1019.08 1019.20 1019.36 1019.48 1019.60 1019.72 1019.88 1020.00 1020.16 1020.28 1020.36 1020.44 1020.48 1020.60 1020.76 1020.92 1021.04 1021.20 1021.36 1021.48 1021.48 1021.52 1021.56 1021.60
1011.28 1011.48 1011.60 1011.80 1011.96 1012.20 1012.40 1012.60 1012.76 1012.92 1013.08 1013.20 1013.36 1013.52 1013.68 1013.80 1013.92 1014.08 1014.28 1014.48 1014.64 1014.76 1014.92 1015.08 1015.20 1015.36 1015.52 1015.68 1015.88 1016.04 1016.20 1016.36 1016.52 1016.72 1016.92 1017.08 1017.24 1017.48 1017.68 1017.88 1018.08 1018.28 1018.44 1018.64 1018.80 1019.00 1019.16 1019.28 1019.40 1019.52 1019.68 1019.84 1020.04 1020.16 1020.28 1020.32 1020.36 1020.44 1020.52 1020.64 1020.84 1020.92 1021.04 1021.20 1021.36 1021.44 1021.44 1021.44 1021.48
1011.24 1011.48 1011.64 1011.80 1012.00 1012.20 1012.40 1012.60 1012.76 1012.92 1013.08 1013.20 1013.36 1013.52 1013.68 1013.80 1013.92 1014.12 1014.32 1014.48 1014.64 1014.76 1014.92 1015.08 1015.24 1015.36 1015.48 1015.64 1015.80 1016.00 1016.20 1016.36 1016.52 1016.68 1016.88 1017.08 1017.24 1017.44 1017.64 1017.80 1018.04 1018.20 1018.40 1018.56 1018.72 1018.88 1019.04 1019.20 1019.28 1019.44 1019.60 1019.80 1019.92 1020.08 1020.20 1020.28 1020.36 1020.40 1020.48 1020.64 1020.76 1020.88 1020.96 1021.08 1021.28 1021.40 1021.44 1021.48 1021.52
1011.28 1011.48 1011.68 1011.88 1012.08 1012.20 1012.40 1012.56 1012.76 1012.92 1013.08 1013.20 1013.36 1013.48 1013.64 1013.84 1014.00 1014.12 1014.28 1014.48 1014.60 1014.76 1014.96 1015.16 1015.28 1015.40 1015.48 1015.64 1015.80 1016.00 1016.20 1016.36 1016.56 1016.76 1016.88 1017.08 1017.20 1017.36 1017.56 1017.76 1017.92 1018.08 1018.28 1018.48 1018.64 1018.76 1018.88 1019.04 1019.20 1019.32 1019.48 1019.64 1019.80 1019.92 1020.08 1020.20 1020.24 1020.36 1020.44 1020.60 1020.72 1020.84 1020.96 1021.12 1021.32 1021.44 1021.52 1021.56 1021.60
1011.36 1011.48 1011.68 1011.88 1012.08 1012.20 1012.36 1012.56 1012.72 1012.88 1013.04 1013.20 1013.36 1013.48 1013.68 1013.88 1014.04 1014.16 1014.32 1014.48 1014.64 1014.84 1015.00 1015.16 1015.32 1015.44 1015.56 1015.68 1015.84 1016.04 1016.20 1016.44 1016.60 1016.72 1016.88 1017.04 1017.20 1017.32 1017.48 1017.64 1017.84 1018.00 1018.16 1018.36 1018.52 1018.68 1018.76 1018.92 1019.08 1019.20 1019.36 1019.48 1019.64 1019.80 1019.96 1020.08 1020.16 1020.28 1020.40 1020.52 1020.68 1020.84 1021.00 1021.20 1021.40 1021.56 1021.64 1021.68 1021.76
1011.40 1011.56 1011.72 1011.88 1012.08 1012.20 1012.36 1012.56 1012.72 1012.88 1013.04 1013.20 1013.36 1013.52 1013.68 1013.88 1014.04 1014.20 1014.36 1014.48 1014.68 1014.84 1015.00 1015.12 1015.28 1015.48 1015.64 1015.80 1015.92 1016.08 1016.24 1016.40 1016.56 1016.68 1016.84 1017.00 1017.16 1017.32 1017.44 1017.64 1017.76 1017.92 1018.08 1018.28 1018.48 1018.64 1018.76 1018.88 1019.04 1019.16 1019.28 1019.44 1019.60 1019.76 1019.88 1020.00 1020.12 1020.24 1020.36 1020.52 1020.68 1020.84 1021.04 1021.20 1021.44 1021.60 1021.72 1021.80 1021.88
1011.48 1011.64 1011.80 1011.92 1012.08 1012.20 1012.36 1012.52 1012.68 1012.88 1013.08 1013.20 1013.40 1013.56 1013.68 1013.88 1014.08 1014.20 1014.36 1014.48 1014.64 1014.84 1015.00 1015.08 1015.20 1015.44 1015.64 1015.80 1015.92 1016.08 1016.20 1016.36 1016.48 1016.64 1016.76 1016.96 1017.16 1017.32 1017.48 1017.64 1017.76 1017.92 1018.08 1018.24 1018.44 1018.60 1018.76 1018.88 1019.00 1019.12 1019.28 1019.44 1019.60 1019.76 1019.88 1020.00 1020.08 1020.20 1020.36 1020.52 1020.68 1020.84 1021.00 1021.16 1021.36 1021.52 1021.64 1021.76 1021.84
1011.48 1011.64 1011.80 1011.92 1012.08 1012.20 1012.36 1012.48 1012.68 1012.88 1013.08 1013.24 1013.40 1013.56 1013.72 1013.88 1014.08 1014.20 1014.36 1014.48 1014.64 1014.76 1014.92 1015.08 1015.24 1015.40 1015.56 1015.72 1015.88 1016.04 1016.16 1016.36 1016.48 1016.64 1016.76 1016.92 1017.12 1017.32 1017.48 1017.60 1017.76 1017.92 1018.08 1018.24 1018.40 1018.56 1018.68 1018.84 1018.96 1019.12 1019.28 1019.44 1019.60 1019.76 1019.88 1020.00 1020.12 1020.20 1020.36 1020.48 1020.64 1020.76 1020.92 1021.08 1021.20 1021.36 1021.48 1021.56 1021.64
1011.48 1011.64 1011.80 1011.92 1012.08 1012.20 1012.36 1012.48 1012.68 1012.88 1013.08 1013.24 1013.40 1013.60 1013.76 1013.92 1014.08 1014.20 1014.36 1014.48 1014.60 1014.72 1014.92 1015.12 1015.28 1015.40 1015.52 1015.68 1015.88 1016.04 1016.20 1016.36 1016.48 1016.64 1016.76 1016.92 1017.12 1017.28 1017.44 1017.60 1017.76 1017.92 1018.08 1018.24 1018.36 1018.48 1018.64 1018.76 1018.92 1019.08 1019.24 1019.40 1019.52 1019.72 1019.88 1020.00 1020.12 1020.20 1020.36 1020.48 1020.60 1020.72 1020.84 1020.96 1021.08 1021.20 1021.24 1021.32 1021.36
1011.52 1011.64 1011.80 1011.88 1012.04 1012.20 1012.36 1012.48 1012.68 1012.88 1013.08 1013.28 1013.48 1013.64 1013.80 1013.92 1014.08 1014.20 1014.36 1014.48 1014.64 1014.76 1014.92 1015.12 1015.28 1015.44 1015.56 1015.76 1015.92 1016.08 1016.20 1016.36 1016.52 1016.68 1016.80 1016.96 1017.12 1017.28 1017.44 1017.60 1017.80 1017.96 1018.12 1018.20 1018.36 1018.48 1018.64 1018.76 1018.92 1019.04 1019.20 1019.36 1019.48 1019.68 1019.84 1019.96 1020.08 1020.20 1020.36 1020.48 1020.60 1020.68 1020.76 1020.92 1021.00 1021.08 1021.20 1021.28 1021.36
1011.48 1011.64 1011.80 1011.92 1012.08 1012.24 1012.44 1012.60 1012.76 1012.96 1013.20 1013.36 1013.52 1013.72 1013.88 1014.00 1014.08 1014.24 1014.36 1014.52 1014.68 1014.84 1015.00 1015.16 1015.28 1015.48 1015.64 1015.80 1015.96 1016.12 1016.28 1016.40 1016.56 1016.68 1016.80 1016.96 1017.12 1017.32 1017.48 1017.64 1017.80 1018.00 1018.16 1018.24 1018.36 1018.48 1018.64 1018.76 1018.92 1019.04 1019.16 1019.28 1019.44 1019.64 1019.76 1019.92 1020.00 1020.12 1020.28 1020.40 1020.52 1020.64 1020.76 1020.88 1020.96 1021.08 1021.20 1021.28 1021.36
1011.56 1011.72 1011.88 1012.04 1012.20 1012.36 1012.52 1012.76 1012.92 1013.12 1013.28 1013.48 1013.64 1013.80 1013.92 1014.08 1014.24 1014.36 1014.48 1014.64 1014.80 1014.96 1015.12 1015.24 1015.40 1015.56 1015.72 1015.88 1016.04 1016.20 1016.36 1016.48 1016.60 1016.72 1016.88 1017.04 1017.20 1017.36 1017.48 1017.64 1017.84 1018.00 1018.16 1018.28 1018.40 1018.52 1018.64 1018.80 1018.92 1019.04 1019.16 1019.28 1019.48 1019.60 1019.68 1019.80 1019.92 1020.08 1020.20 1020.36 1020.48 1020.64 1020.76 1020.88 1020.96 1021.08 1021.16 1021.24 1021.36
1011.72 1011.88 1012.08 1012.20 1012.36 1012.48 1012.72 1012.92 1013.08 1013.24 1013.40 1013.56 1013.72 1013.88 1014.04 1014.20 1014.36 1014.52 1014.68 1014.80 1014.96 1015.12 1015.24 1015.40 1015.60 1015.72 1015.84 1016.00 1016.12 1016.28 1016.44 1016.56 1016.68 1016.80 1016.92 1017.08 1017.28 1017.40 1017.52 1017.64 1017.84 1018.00 1018.16 1018.32 1018.44 1018.52 1018.64 1018.80 1018.96 1019.08 1019.20 1019.32 1019.48 1019.60 1019.64 1019.72 1019.84 1020.00 1020.16 1020.28 1020.44 1020.56 1020.68 1020.84 1020.96 1021.08 1021.12 1021.20 1021.32
1011.92 1012.08 1012.20 1012.36 1012.52 1012.68 1012.88 1013.04 1013.20 1013.36 1013.52 1013.68 1013.80 1013.96 1014.12 1014.32 1014.48 1014.64 1014.80 1014.96 1015.08 1015.24 1015.40 1015.60 1015.72 1015.88 1016.00 1016.08 1016.20 1016.36 1016.48 1016.60 1016.76 1016.92 1017.08 1017.20 1017.32 1017.44 1017.60 1017.72 1017.88 1018.00 1018.12 1018.28 1018.44 1018.56 1018.64 1018.80 1019.00 1019.16 1019.28 1019.36 1019.48 1019.52 1019.64 1019.72 1019.80 1019.92 1020.08 1020.24 1020.40 1020.52 1020.68 1020.84 1020.96 1021.04 1021.08 1021.16 1021.28
1012.04 1012.16 1012.32 1012.48 1012.64 1012.80 1012.96 1013.08 1013.28 1013.48 1013.64 1013.80 1013.92 1014.08 1014.28 1014.48 1014.60 1014.76 1014.96 1015.12 1015.24 1015.40 1015.52 1015.68 1015.84 1016.00 1016.08 1016.20 1016.28 1016.36 1016.48 1016.60 1016.76 1016.96 1017.12 1017.28 1017.36 1017.48 1017.64 1017.76 1017.88 1018.00 1018.12 1018.32 1018.36 1018.48 1018.56 1018.68 1018.92 1019.08 1019.24 1019.36 1019.48 1019.52 1019.64 1019.72 1019.84 1019.96 1020.08 1020.20 1020.36 1020.48 1020.64 1020.76 1020.92 1021.00 1021.08 1021.16 1021.20
1012.12 1012.24 1012.44 1012.64 1012.76 1012.92 1013.08 1013.20 1013.36 1013.56 1013.76 1013.92 1014.08 1014.24 1014.44 1014.64 1014.76 1014.92 1015.08 1015.24 1015.40 1015.56 1015.64 1015.80 1015.92 1016.08 1016.20 1016.24 1016.36 1016.48 1016.56 1016.68 1016.84 1016.96 1017.12 1017.28 1017.40 1017.52 1017.64 1017.76 1017.84 1018.00 1018.12 1018.24 1018.32 1018.40 1018.48 1018.64 1018.80 1019.00 1019.20 1019.32 1019.40 1019.52 1019.64 1019.80 1019.84 1019.92 1020.04 1020.20 1020.32 1020.48 1020.60 1020.72 1020.84 1020.92 1021.04 1021.08 1021.16
1012.24 1012.40 1012.56 1012.72 1012.88 1013.04 1013.20 1013.36 1013.52 1013.72 1013.92 1014.04 1014.20 1014.40 1014.60 1014.72 1014.88 1015.04 1015.20 1015.40 1015.56 1015.68 1015.80 1015.88 1016.00 1016.08 1016.20 1016.32 1016.44 1016.56 1016.72 1016.80 1016.92 1017.04 1017.16 1017.24 1017.36 1017.48 1017.64 1017.72 1017.80 1018.00 1018.12 1018.20 1018.24 1018.36 1018.44 1018.56 1018.76 1018.92 1019.08 1019.24 1019.36 1019.48 1019.64 1019.76 1019.84 1019.92 1020.08 1020.20 1020.32 1020.44 1020.52 1020.64 1020.76 1020.88 1020.96 1021.08 1021.12
1012.36 1012.52 1012.68 1012.80 1013.04 1013.20 1013.40 1013.52 1013.72 1013.88 1014.08 1014.20 1014.36 1014.52 1014.72 1014.80 1014.96 1015.16 1015.36 1015.52 1015.64 1015.80 1015.92 1016.00 1016.12 1016.20 1016.28 1016.40 1016.52 1016.64 1016.80 1016.92 1017.00 1017.08 1017.20 1017.32 1017.40 1017.52 1017.64 1017.80 1017.88 1018.00 1018.08 1018.16 1018.20 1018.32 1018.40 1018.52 1018.64 1018.80 1019.00 1019.20 1019.32 1019.48 1019.60 1019.72 1019.80 1019.96 1020.08 1020.24 1020.36 1020.40 1020.48 1020.60 1020.68 1020.76 1020.88 1020.96 1021.08
1012.48 1012.64 1012.76 1013.00 1013.20 1013.40 1013.56 1013.72 1013.88 1014.08 1014.20 1014.40 1014.48 1014.64 1014.80 1015.00 1015.12 1015.28 1015.44 1015.60 1015.72 1015.84 1015.96 1016.12 1016.20 1016.32 1016.44 1016.56 1016.68 1016.80 1016.92 1017.00 1017.08 1017.16 1017.28 1017.40 1017.48 1017.60 1017.72 1017.84 1017.92 1018.04 1018.08 1018.12 1018.20 1018.28 1018.36 1018.48 1018.60 1018.76 1018.92 1019.12 1019.32 1019.48 1019.60 1019.72 1019.80 1019.92 1020.08 1020.20 1020.32 1020.36 1020.44 1020.52 1020.64 1020.72 1020.80 1020.92 1021.00
1012.56 1012.72 1012.92 1013.12 1013.36 1013.52 1013.72 1013.88 1014.04 1014.20 1014.36 1014.52 1014.64 1014.80 1014.92 1015.12 1015.28 1015.44 1015.56 1015.68 1015.84 1015.96 1016.08 1016.20 1016.32 1016.44 1016.56 1016.72 1016.80 1016.92 1017.00 1017.08 1017.16 1017.24 1017.36 1017.48 1017.56 1017.68 1017.80 1017.92 1018.04 1018.08 1018.12 1018.12 1018.20 1018.24 1018.36 1018.48 1018.56 1018.64 1018.84 1019.08 1019.28 1019.48 1019.64 1019.72 1019.80 1019.92 1020.08 1020.16 1020.24 1020.36 1020.40 1020.48 1020.60 1020.68 1020.76 1020.88 1021.00
1012.68 1012.84 1013.04 1013.24 1013.48 1013.68 1013.88 1014.04 1014.20 1014.32 1014.44 1014.60 1014.76 1014.92 1015.08 1015.20 1015.40 1015.56 1015.68 1015.84 1015.96 1016.08 1016.20 1016.36 1016.44 1016.56 1016.72 1016.84 1016.92 1017.04 1017.12 1017.20 1017.20 1017.32 1017.40 1017.48 1017.64 1017.80 1017.92 1018.04 1018.12 1018.20 1018.20 1018.16 1018.20 1018.24 1018.36 1018.44 1018.52 1018.64 1018.76 1018.96 1019.28 1019.48 1019.64 1019.76 1019.80 1019.92 1020.00 1020.08 1020.20 1020.32 1020.40 1020.48 1020.60 1020.64 1020.76 1020.88 1021.00
1012.76 1012.96 1013.16 1013.36 1013.64 1013.84 1014.04 1014.20 1014.32 1014.44 1014.56 1014.68 1014.84 1015.04 1015.20 1015.36 1015.56 1015.72 1015.88 1015.96 1016.08 1016.20 1016.36 1016.44 1016.56 1016.72 1016.88 1017.00 1017.08 1017.20 1017.24 1017.32 1017.36 1017.44 1017.48 1017.60 1017.72 1017.92 1018.04 1018.16 1018.24 1018.28 1018.24 1018.20 1018.20 1018.24 1018.32 1018.40 1018.48 1018.60 1018.68 1018.88 1019.20 1019.48 1019.64 1019.76 1019.84 1019.92 1020.00 1020.08 1020.20 1020.32 1020.40 1020.48 1020.60 1020.72 1020.80 1020.92 1021.00
1012.92 1013.08 1013.28 1013.48 1013.80 1014.00 1014.20 1014.28 1014.40 1014.52 1014.68 1014.80 1015.00 1015.16 1015.36 1015.56 1015.76 1015.88 1016.00 1016.08 1016.20 1016.32 1016.44 1016.56 1016.68 1016.84 1017.00 1017.08 1017.20 1017.28 1017.36 1017.44 1017.48 1017.56 1017.64 1017.76 1017.88 1018.00 1018.16 1018.24 1018.36 1018.36 1018.32 1018.20 1018.20 1018.24 1018.32 1018.40 1018.48 1018.56 1018.64 1018.76 1019.20 1019.48 1019.68 1019.80 1019.88 1019.96 1020.08 1020.16 1020.28 1020.36 1020.48 1020.56 1020.64 1020.76 1020.84 1020.92 1021.00
1013.00 1013.20 1013.40 1013.60 1013.88 1014.08 1014.24 1014.36 1014.48 1014.64 1014.80 1015.00 1015.20 1015.36 1015.48 1015.64 1015.84 1016.00 1016.16 1016.28 1016.40 1016.52 1016.68 1016.76 1016.92 1017.04 1017.16 1017.24 1017.32 1017.40 1017.48 1017.60 1017.72 1017.80 1017.88 1017.92 1018.00 1018.12 1018.24 1018.36 1018.44 1018.40 1018.36 1018.28 1018.28 1018.28 1018.36 1018.44 1018.48 1018.52 1018.64 1018.80 1019.20 1019.52 1019.72 1019.80 1019.92 1020.04 1020.12 1020.20 1020.36 1020.44 1020.52 1020.60 1020.68 1020.76 1020.84 1020.92 1020.96
1013.08 1013.28 1013.52 1013.76 1013.92 1014.12 1014.32 1014.48 1014.64 1014.76 1014.96 1015.20 1015.40 1015.56 1015.68 1015.80 1015.96 1016.12 1016.24 1016.36 1016.56 1016.72 1016.92 1017.08 1017.20 1017.28 1017.36 1017.44 1017.48 1017.52 1017.64 1017.76 1017.88 1017.92 1018.00 1018.04 1018.08 1018.20 1018.32 1018.40 1018.48 1018.48 1018.44 1018.36 1018.36 1018.36 1018.36 1018.44 1018.48 1018.52 1018.64 1019.00 1019.36 1019.64 1019.80 1019.88 1019.96 1020.08 1020.16 1020.28 1020.36 1020.44 1020.52 1020.60 1020.68 1020.76 1020.80 1020.88 1020.92
1013.08 1013.32 1013.56 1013.80 1014.04 1014.20 1014.36 1014.56 1014.72 1014.88 1015.08 1015.32 1015.52 1015.72 1015.88 1016.00 1016.16 1016.28 1016.36 1016.48 1016.60 1016.76 1017.00 1017.16 1017.28 1017.36 1017.48 1017.56 1017.64 1017.68 1017.76 1017.84 1017.92 1018.04 1018.12 1018.16 1018.20 1018.28 1018.36 1018.48 1018.56 1018.56 1018.48 1018.44 1018.40 1018.40 1018.40 1018.48 1018.48 1018.56 1018.76 1019.12 1019.48 1019.72 1019.84 1019.92 1020.04 1020.12 1020.20 1020.28 1020.36 1020.40 1020.48 1020.52 1020.64 1020.76 1020.80 1020.88 1020.92
1013.12 1013.32 1013.52 1013.84 1014.08 1014.32 1014.48 1014.64 1014.80 1015.00 1015.24 1015.48 1015.64 1015.84 1016.00 1016.12 1016.28 1016.44 1016.48 1016.56 1016.68 1016.88 1017.08 1017.24 1017.36 1017.48 1017.56 1017.68 1017.80 1017.92 1018.00 1018.04 1018.04 1018.08 1018.16 1018.20 1018.28 1018.36 1018.44 1018.52 1018.64 1018.64 1018.64 1018.56 1018.48 1018.48 1018.44 1018.48 1018.52 1018.68 1018.96 1019.32 1019.52 1019.72 1019.84 1019.96 1020.08 1020.16 1020.20 1020.28 1020.36 1020.44 1020.52 1020.56 1020.64 1020.76 1020.80 1020.92 1020.92
1013.20 1013.36 1013.56 1013.84 1014.12 1014.36 1014.56 1014.72 1014.92 1015.12 1015.36 1015.60 1015.80 1015.96 1016.08 1016.20 1016.40 1016.56 1016.60 1016.64 1016.76 1016.96 1017.20 1017.36 1017.48 1017.64 1017.72 1017.80 1017.92 1018.08 1018.20 1018.20 1018.20 1018.20 1018.28 1018.36 1018.40 1018.48 1018.48 1018.56 1018.64 1018.76 1018.76 1018.68 1018.60 1018.52 1018.48 1018.48 1018.60 1018.76 1019.08 1019.32 1019.52 1019.68 1019.84 1019.96 1020.08 1020.16 1020.24 1020.36 1020.44 1020.52 1020.60 1020.64 1020.72 1020.76 1020.84 1020.88 1020.92
1013.32 1013.44 1013.64 1013.88 1014.16 1014.44 1014.64 1014.80 1015.00 1015.20 1015.44 1015.68 1015.92 1016.08 1016.20 1016.36 1016.52 1016.68 1016.76 1016.84 1016.92 1017.04 1017.20 1017.40 1017.60 1017.76 1017.84 1017.88 1017.96 1018.12 1018.28 1018.36 1018.40 1018.40 1018.48 1018.52 1018.60 1018.60 1018.60 1018.64 1018.72 1018.80 1018.80 1018.76 1018.64 1018.60 1018.56 1018.52 1018.64 1018.84 1019.08 1019.28 1019.48 1019.64 1019.80 1019.92 1020.08 1020.20 1020.32 1020.40 1020.48 1020.60 1020.68 1020.76 1020.76 1020.84 1020.88 1020.92 1020.84
1013.40 1013.56 1013.72 1013.96 1014.20 1014.48 1014.72 1014.92 1015.16 1015.36 1015.52 1015.76 1015.92 1016.12 1016.32 1016.44 1016.64 1016.80 1016.92 1017.00 1017.08 1017.16 1017.32 1017.48 1017.68 1017.84 1017.92 1017.92 1018.08 1018.20 1018.40 1018.52 1018.64 1018.64 1018.64 1018.68 1018.64 1018.64 1018.64 1018.72 1018.80 1018.88 1018.88 1018.80 1018.68 1018.64 1018.56 1018.52 1018.64 1018.88 1019.08 1019.32 1019.44 1019.60 1019.76 1019.92 1020.08 1020.20 1020.36 1020.44 1020.52 1020.64 1020.72 1020.76 1020.84 1020.92 1020.92 1020.96 1020.92
1013.52 1013.72 1013.92 1014.12 1014.36 1014.56 1014.80 1015.08 1015.36 1015.52 1015.64 1015.80 1016.00 1016.20 1016.36 1016.52 1016.72 1016.88 1017.00 1017.08 1017.20 1017.32 1017.44 1017.60 1017.80 1017.92 1018.00 1018.08 1018.20 1018.36 1018.48 1018.64 1018.76 1018.80 1018.80 1018.76 1018.72 1018.76 1018.76 1018.88 1018.92 1018.96 1018.92 1018.88 1018.76 1018.64 1018.56 1018.56 1018.72 1018.92 1019.12 1019.36 1019.48 1019.64 1019.76 1019.92 1020.08 1020.20 1020.36 1020.44 1020.52 1020.60 1020.68 1020.76 1020.88 1020.92 1020.92 1020.92 1020.92
Wind_Speed
9 9 8 8 8 7 7 6 6 7 7 8 8 8 8 8 8 7 7 7 7 7 7 7 7 8 8 9 11 12 13 13 13 12 12 12 12 11 10 8 8 9 9 9 8 8 8 8 6 5 4 4 5 5 4 4 5 6 6 6 5 5 6 7 7 7 8 8 6
10 10 9 9 8 7 6 6 6 6 7 7 8 8 8 8 8 8 8 8 7 7 6 6 7 7 8 10 11 11 12 12 12 12 12 12 11 10 9 8 9 9 9 9 9 8 7 7 6 5 4 4 4 4 4 4 5 6 6 7 5 5 5 6 6 7 8 7 6
10 10 9 9 9 8 7 7 7 8 8 8 7 7 8 7 7 7 7 7 7 6 6 5 7 8 9 10 10 10 11 11 11 11 10 10 9 9 8 8 9 9 9 9 8 8 7 7 6 5 4 4 5 5 5 4 5 6 6 7 5 4 4 5 5 5 5 5 6
10 10 10 10 11 11 10 8 9 10 10 8 7 7 7 7 6 6 6 6 6 6 6 6 7 7 8 8 9 9 9 10 10 10 9 8 8 8 8 8 8 8 8 8 8 8 8 8 6 5 5 5 6 6 5 5 6 6 5 5 4 4 5 4 4 4 4 4 5
10 10 10 10 12 12 11 10 11 11 10 8 7 7 7 6 5 5 5 5 6 7 7 8 7 6 7 8 9 9 9 9 9 9 8 8 8 8 8 8 8 8 8 8 8 9 9 8 5 4 4 5 5 5 5 6 6 6 4 3 3 4 4 4 4 4 4 4 4
10 10 10 10 12 11 10 10 11 11 10 8 8 8 7 6 6 6 6 7 8 8 8 8 7 6 6 7 8 8 8 7 8 8 8 8 8 8 8 8 9 9 9 9 9 9 9 8 5 4 4 5 4 5 6 7 7 6 5 4 3 4 4 4 4 4 4 4 5
10 10 10 11 12 11 10 10 11 10 9 8 10 10 10 8 8 9 9 8 8 7 7 6 7 7 7 7 7 8 8 7 8 8 8 8 7 8 8 8 9 9 9 9 9 8 8 7 5 4 4 5 4 5 6 8 7 6 6 5 4 4 4 5 5 5 5 6 6
10 10 11 11 12 12 11 11 11 10 9 8 10 11 12 11 11 11 10 8 7 7 7 6 7 7 8 8 8 8 9 8 8 7 7 7 7 8 8 8 8 8 8 7 8 8 7 6 5 5 4 4 4 5 7 9 9 8 7 7 5 5 5 5 5 6 6 8 8
8 9 10 10 11 11 12 12 11 11 10 10 11 12 12 11 11 11 10 8 7 6 6 6 7 7 8 8 8 8 8 8 7 7 7 7 7 8 8 8 8 8 7 7 8 9 8 6 5 4 4 4 4 5 7 10 10 9 8 7 6 6 5 5 6 7 8 8 8
9 9 9 10 10 11 11 11 11 12 12 11 11 11 10 10 10 9 8 6 6 6 6 6 7 7 8 8 8 7 7 7 7 7 7 7 8 8 8 8 8 8 7 7 7 8 7 5 5 5 5 4 6 7 8 10 10 10 9 6 7 7 7 6 7 8 8 8 9
10 10 10 10 10 10 10 10 10 10 10 10 10 9 9 9 9 8 7 5 6 6 7 7 7 8 8 7 7 7 7 7 7 7 8 8 8 8 8 7 8 8 7 7 6 6 6 5 5 5 6 5 6 7 9 10 11 10 9 7 8 9 9 8 8 8 8 8 8
10 10 10 10 10 10 10 10 9 9 9 9 9 9 8 8 8 7 6 6 7 7 7 7 8 8 8 7 7 7 7 7 7 8 8 8 8 8 8 8 8 8 8 8 7 6 6 6 6 7 7 7 6 7 8 10 11 10 10 9 9 9 10 9 9 7 7 7 7
10 10 10 10 10 10 10 10 9 8 9 9 8 8 8 7 7 7 7 8 8 7 6 6 7 7 7 7 7 6 6 6 7 7 7 8 8 9 9 9 9 9 9 9 8 7 7 7 8 8 8 7 6 7 8 10 10 10 9 9 9 9 10 10 9 8 7 7 7
10 10 10 10 10 10 10 9 8 8 8 8 8 8 7 6 7 7 8 8 7 6 6 6 6 6 6 6 6 6 6 6 7 7 8 8 8 9 9 9 10 10 9 8 8 8 8 8 8 8 8 8 8 8 8 9 9 9 9 9 9 9 9 9 8 7 7 7 7
10 10 10 10 10 10 9 9 8 7 8 8 7 7 6 6 6 7 7 7 7 6 6 6 5 5 5 6 6 7 7 7 8 8 8 9 9 9 10 10 10 10 9 8 8 8 9 9 8 8 8 9 8 8 8 9 8 8 8 8 8 8 7 7 7 6 6 6 6
10 10 10 10 10 10 9 8 7 7 7 7 7 6 6 6 6 6 7 7 6 6 6 6 6 6 5 6 6 7 8 8 8 9 9 8 9 9 9 9 10 10 9 9 8 8 8 8 8 8 8 8 8 8 8 9 8 8 7 7 7 7 6 6 6 6 6 6 6
10 10 10 10 10 10 9 8 7 7 7 7 7 7 6 6 6 6 7 7 6 6 6 7 6 6 6 6 7 7 8 8 8 8 8 8 8 8 8 9 9 9 9 9 8 8 8 7 7 7 7 8 8 8 8 8 7 7 7 7 7 7 7 7 7 7 7 7 7
9 10 10 10 11 10 10 9 8 8 8 8 7 7 7 6 6 6 7 7 7 7 7 7 7 7 7 7 7 7 6 7 7 7 8 8 8 8 8 8 8 8 8 8 8 8 8 8 7 7 7 7 7 7 7 7 7 7 7 7 7 7 8 8 9 9 8 8 9
10 10 10 10 10 10 10 9 9 8 8 8 7 7 7 7 7 7 7 7 7 8 8 8 7 7 7 7 7 6 6 6 7 7 7 7 8 8 8 8 7 7 8 8 8 8 8 8 8 8 7 7 7 7 7 7 7 7 7 7 7 8 9 9 9 9 9 9 9
10 10 10 10 10 10 9 9 8 8 7 7 7 7 7 7 8 8 8 7 7 7 7 7 7 6 6 7 6 6 6 5 6 7 7 7 7 7 7 7 7 7 7 7 8 8 8 8 8 8 8 8 8 7 7 7 7 7 7 7 7 8 9 9 9 9 9 8 7
10 10 10 9 9 8 8 7 7 7 7 7 7 7 7 7 7 7 7 7 6 6 6 7 7 7 7 7 6 6 5 4 5 6 6 6 7 7 7 7 7 7 7 7 7 7 7 8 8 8 8 8 8 8 8 8 8 8 8 7 7 8 8 8 8 8 7 7 6
8 8 7 7 7 7 7 6 6 6 7 7 7 7 7 7 6 6 6 5 5 5 6 6 6 6 6 6 6 6 5 4 5 5 5 6 6 6 6 7 7 7 7 7 6 7 7 7 7 7 7 7 7 8 8 8 8 8 8 8 8 8 7 7 6 6 6 6 6
6 6 5 6 6 7 7 6 6 7 7 7 7 7 7 6 5 5 5 5 5 5 5 5 5 5 5 6 6 6 6 5 5 5 5 5 6 6 6 6 7 7 7 6 6 6 6 6 6 6 6 6 6 7 8 8 8 8 8 8 7 7 7 5 5 5 5 6 6
6 6 5 5 6 7 7 7 7 7 7 7 7 7 6 6 6 6 6 5 5 5 5 4 4 5 5 5 6 6 6 6 6 6 5 5 6 6 6 6 6 6 6 5 6 6 6 5 5 5 5 5 6 7 7 7 6 7 7 7 7 6 6 5 5 5 6 6 6
7 7 6 6 6 7 7 7 7 7 7 7 6 6 6 6 6 6 6 6 6 5 5 5 5 5 5 5 5 6 6 7 7 6 6 6 6 6 6 5 5 5 5 5 8 10 9 8 6 5 5 5 6 6 6 5 5 6 7 7 7 6 5 5 5 5 6 6 6
7 7 7 7 7 7 7 7 7 7 7 6 6 6 6 6 6 6 6 6 6 5 5 6 5 5 5 5 5 5 5 5 6 7 7 6 6 6 6 5 5 4 4 6 10 12 12 11 9 8 6 5 6 5 5 4 5 6 7 7 6 6 6 6 6 6 6 6 7
7 7 7 7 7 7 7 7 7 7 7 7 7 7 6 6 6 6 6 6 6 5 5 5 5 5 5 5 5 5 5 4 5 6 7 7 7 7 6 5 5 4 5 8 11 13 12 12 12 10 9 6 6 5 5 5 5 6 6 5 5 6 6 6 6 6 6 6 7
7 7 7 8 7 7 7 7 7 7 7 7 7 7 7 7 7 7 7 6 6 5 5 4 4 4 4 4 4 5 5 5 5 5 6 6 6 6 5 4 4 4 6 10 12 13 12 12 12 12 10 7 6 5 5 5 5 5 5 5 5 5 6 6 6 6 6 7 6
8 8 8 8 8 7 7 7 7 7 7 7 7 7 7 7 7 7 7 6 6 5 4 3 3 3 3 4 4 4 5 5 5 5 5 5 5 5 5 4 4 5 8 11 12 12 12 12 12 12 11 9 6 4 4 4 4 5 5 4 5 5 5 5 5 5 6 6 6
8 8 8 8 8 7 7 7 7 7 7 7 7 8 8 7 7 7 7 6 6 5 4 3 3 4 4 4 4 4 4 4 4 5 5 6 5 5 4 4 4 5 7 11 11 11 12 11 11 11 11 10 7 4 3 4 4 4 4 4 5 5 6 5 5 6 6 5 5
8 8 9 9 8 7 7 7 7 7 7 7 8 8 8 7 7 6 5 5 5 4 4 5 5 5 5 4 4 4 4 4 4 4 5 6 5 5 4 4 4 4 6 10 10 11 11 11 10 10 10 11 7 5 4 4 4 4 4 4 5 5 5 5 5 5 5 5 5
8 9 9 9 8 8 7 7 7 8 8 8 8 8 7 7 6 5 4 4 5 5 6 6 6 6 6 5 4 4 4 4 4 4 5 5 5 5 4 4 3 3 5 9 9 10 10 9 9 9 10 10 7 6 4 4 4 4 4 4 5 5 5 4 4 4 5 5 5
8 9 9 9 9 8 8 8 8 8 8 8 8 8 7 7 6 5 5 4 5 5 6 6 6 6 5 5 5 4 4 4 4 4 5 5 5 5 4 3 2 2 5 7 8 8 8 8 8 9 9 9 7 6 5 4 3 3 3 3 3 3 4 4 4 4 4 5 5
9 9 9 9 9 9 8 8 8 8 8 8 8 7 7 7 7 6 5 4 4 4 4 4 4 4 4 4 4 5 5 4 4 4 4 5 5 5 4 2 1 2 4 6 7 7 7 7 7 8 7 8 7 5 4 4 3 3 3 3 3 3 3 4 4 4 5 5 5
9 10 10 9 9 9 9 8 8 9 9 9 8 7 7 6 6 6 5 4 4 4 4 4 4 4 4 4 4 4 5 5 4 4 4 4 5 5 4 2 1 2 3 5 5 6 6 6 6 6 6 8 6 5 4 4 4 3 3 3 3 3 4 4 4 4 4 4 4
10 10 10 10 9 9 9 9 9 9 9 9 8 7 6 6 5 4 5 5 5 5 4 4 4 4 4 4 4 4 4 5 5 4 4 4 4 4 4 2 0 1 3 4 4 4 5 5 5 5 7 8 6 4 4 4 3 3 3 3 3 3 4 4 3 3 3 3 4
10 11 11 11 10 9 9 9 9 9 9 8 8 7 6 6 5 4 4 5 5 5 5 4 4 4 4 4 4 3 3 3 4 4 4 4 4 4 3 2 1 1 2 2 2 3 3 4 5 7 8 7 5 4 4 3 3 3 3 3 3 3 3 2 2 3 3 3 4
9 10 11 11 10 9 9 9 9 9 9 8 7 6 5 5 4 3 3 4 5 5 5 4 4 4 4 4 5 4 4 4 4 4 4 3 3 3 3 3 1 1 2 3 2 1 2 3 6 9 9 7 6 5 4 3 3 3 2 2 2 2 2 1 1 2 2 3 5
9 10 11 11 10 10 9 9 9 9 9 8 7 6 5 4 3 3 2 3 4 4 5 5 4 4 4 5 6 6 5 5 5 4 4 3 2 2 3 3 1 1 2 3 3 1 1 3 8 11 11 8 6 5 4 3 3 3 3 2 2 2 1 1 1 1 2 3 5
9 9 10 11 10 10 9 9 9 8 8 8 7 6 5 4 4 3 3 3 4 4 5 6 5 5 5 6 6 6 6 6 6 5 4 3 3 3 3 3 2 2 3 4 4 3 0 4 9 12 11 7 6 5 4 4 4 3 3 2 2 2 1 0 0 0 1 2 3
8 9 10 10 10 10 10 10 9 8 7 8 7 6 5 4 4 4 4 4 5 5 6 6 6 6 6 6 6 7 7 7 6 5 5 4 4 4 4 3 2 2 3 4 4 3 3 7 11 12 10 7 5 4 4 4 4 3 3 2 2 2 1 1 0 0 1 1 1
Wind_Direction
175 175 173 169 169 168 166 165 164 166 168 171 173 175 177 180 182 183 184 187 191 194 196 198 199 199 197 193 192 195 199 201 202 202 203 203 203 201 197 192 191 190 187 184 176 174 174 174 172 173 177 182 182 181 179 173 175 178 183 186 187 185 185 188 190 189 187 186 183
174 173 170 165 163 161 158 158 162 166 170 175 175 176 178 182 183 184 187 191 194 194 194 196 198 197 194 192 193 195 198 200 202 202 203 204 203 198 192 189 191 189 186 181 174 171 171 171 170 170 172 174 174 176 176 172 170 172 177 182 179 178 182 192 195 194 190 188 182
172 170 168 165 165 163 163 163 166 170 173 177 177 177 179 182 184 186 188 192 192 191 191 194 196 194 193 191 193 195 198 199 200 201 202 203 199 194 189 190 189 187 183 177 173 171 170 171 171 170 171 172 175 177 177 171 168 170 174 180 175 174 180 191 193 192 192 195 185
169 168 168 167 167 167 168 168 170 173 175 176 175 176 178 182 184 185 186 187 187 189 193 196 196 194 191 190 192 194 196 197 198 199 200 199 193 189 186 184 181 179 176 172 171 171 171 171 171 172 174 175 179 181 179 169 171 172 174 177 173 174 179 183 180 185 194 203 193
169 170 170 169 169 169 170 170 171 173 174 173 172 174 178 181 182 181 181 184 190 194 196 195 193 189 186 187 189 191 193 194 194 195 196 193 189 185 181 177 176 175 174 173 174 174 173 170 170 174 177 176 182 182 176 164 168 170 170 167 172 177 178 175 175 183 193 201 196
170 170 170 168 168 169 169 170 172 173 173 171 172 174 177 179 179 181 185 190 195 195 194 191 188 183 180 182 185 187 188 189 192 193 194 192 187 181 176 176 179 180 181 180 177 174 171 168 169 174 178 177 183 176 164 156 163 166 166 165 176 179 178 176 176 181 187 192 187
169 169 167 166 167 168 169 170 171 171 171 170 174 177 179 181 182 186 189 193 192 190 188 187 185 181 177 177 183 186 187 188 190 191 190 188 182 177 175 177 179 181 180 177 172 170 169 168 171 177 181 179 176 166 159 159 165 168 170 173 179 180 180 180 176 177 182 185 180
167 166 166 164 167 168 168 168 169 169 171 173 178 181 183 183 185 188 190 191 189 187 186 185 182 178 176 178 184 187 188 187 187 185 183 180 176 175 175 174 174 173 171 167 165 167 170 174 178 181 181 179 171 163 162 166 170 174 176 177 179 182 185 183 177 177 179 180 177
164 164 163 163 167 167 167 167 168 170 173 177 182 183 184 184 186 187 188 190 187 183 180 179 177 176 176 180 184 185 185 183 181 179 177 177 174 173 173 172 171 169 167 167 170 174 176 178 182 181 177 173 166 164 167 172 175 178 180 179 178 181 186 186 181 178 177 177 176
162 161 161 162 166 166 164 165 168 171 175 179 182 183 183 183 185 186 187 186 174 171 173 176 174 175 178 182 183 181 179 177 175 174 175 176 174 174 174 174 172 169 167 170 173 175 176 177 180 179 175 170 166 167 171 177 180 183 184 181 178 179 182 187 183 180 177 177 175
161 161 161 162 163 162 161 163 168 172 176 178 179 180 181 182 184 183 178 166 161 168 175 176 174 177 180 181 179 177 175 175 175 175 174 176 174 172 172 171 169 167 167 169 169 170 172 176 180 179 176 172 168 170 175 181 184 186 187 184 180 180 182 185 184 183 180 178 171
160 160 160 160 160 159 160 163 168 172 175 177 176 177 179 181 178 173 165 158 166 173 177 174 175 177 179 178 177 175 174 175 174 172 172 172 170 168 167 167 167 168 168 169 169 170 174 182 184 182 179 176 174 176 180 185 189 190 189 186 183 183 185 185 185 185 184 177 168
157 158 158 157 157 158 160 164 167 171 175 175 175 176 177 175 170 164 162 165 171 173 173 171 173 175 176 176 173 171 168 166 164 165 166 167 167 167 168 168 169 170 171 172 174 176 180 185 187 185 182 179 181 182 184 187 191 192 191 187 187 189 190 187 186 185 182 175 168
154 155 155 155 156 158 161 164 167 171 173 174 174 173 172 167 164 164 165 170 170 168 165 165 168 172 173 171 166 162 159 157 157 161 165 168 169 170 171 171 172 173 174 176 179 182 184 186 187 186 184 182 184 184 185 188 192 193 191 188 190 193 193 189 186 183 180 174 169
152 153 154 154 157 159 162 165 167 170 172 173 171 169 165 162 163 165 166 168 165 162 160 163 167 168 165 160 157 157 157 158 161 165 169 171 172 173 174 175 175 176 178 178 181 185 187 186 187 186 185 185 185 184 185 189 193 194 193 190 191 192 190 183 180 180 178 173 166
151 152 153 155 159 161 164 167 168 169 171 171 167 164 162 161 162 164 164 164 160 159 161 165 165 162 158 155 156 158 160 164 167 169 171 172 174 175 176 177 178 179 179 178 181 185 188 187 187 186 185 184 184 185 186 189 192 193 193 189 187 184 179 169 169 172 173 169 163
151 153 155 158 161 164 166 168 169 169 169 168 164 162 163 161 161 164 166 165 162 162 164 168 165 163 161 163 163 163 164 167 169 171 172 172 174 176 178 180 180 179 178 177 179 182 185 187 186 184 183 181 182 183 184 186 189 189 188 183 180 175 169 164 165 168 170 169 168
152 155 158 161 164 167 168 170 169 169 167 164 163 163 163 160 162 165 167 167 165 165 166 168 167 165 165 167 166 165 165 167 171 173 173 173 174 176 177 179 178 176 175 176 178 181 182 184 183 181 178 177 178 180 181 182 183 183 181 177 175 172 169 168 169 171 173 176 176
155 158 161 165 168 169 170 170 168 166 164 161 160 160 160 159 161 164 167 170 169 168 167 166 167 165 164 162 162 162 165 169 173 173 173 171 172 174 176 176 173 171 173 176 179 180 181 181 179 177 176 175 174 175 177 178 179 178 176 174 174 173 173 173 175 178 181 183 182
159 162 166 169 169 169 169 168 164 160 157 155 155 155 157 159 161 164 168 171 170 167 164 163 163 160 158 155 157 160 165 168 170 171 169 167 168 169 170 169 165 166 170 175 177 178 178 178 177 176 174 173 172 173 174 176 178 177 176 175 176 177 178 179 181 184 187 190 188
162 165 167 167 165 164 161 157 151 147 145 147 150 152 155 158 162 165 166 164 159 157 156 158 157 155 152 153 155 157 159 157 161 162 161 158 159 161 162 162 162 164 169 173 173 173 173 174 175 175 174 174 174 173 173 176 178 179 179 179 181 182 182 184 186 188 191 193 191
160 159 156 153 151 147 142 135 132 133 136 141 146 150 152 154 155 153 147 139 139 142 146 148 148 148 148 151 151 149 145 141 145 147 149 149 152 156 159 161 161 164 168 172 169 167 168 171 172 173 173 173 171 172 175 177 178 180 181 183 183 184 186 188 189 190 190 189 186
144 139 134 132 131 128 126 123 124 127 132 137 143 147 148 146 136 126 121 121 128 130 131 129 129 133 137 140 140 138 135 132 132 132 135 140 147 152 157 159 161 166 169 169 163 160 161 163 166 167 167 164 167 172 178 180 180 180 181 182 183 184 186 187 188 189 188 186 186
128 125 123 121 122 123 124 123 126 129 132 136 139 139 136 130 121 115 112 114 116 117 117 116 117 119 122 126 132 135 137 135 133 130 130 134 142 148 153 157 162 167 168 166 163 162 160 157 158 159 160 161 170 177 182 180 177 176 178 180 182 183 184 184 186 188 188 187 188
124 123 122 121 123 125 126 128 130 131 133 133 131 126 121 118 116 114 111 109 108 108 111 113 114 116 119 124 130 135 137 138 137 135 134 137 143 148 153 158 163 166 167 166 170 170 169 164 162 161 163 168 177 181 180 171 170 174 178 181 182 182 182 181 184 187 190 188 189
123 122 122 124 125 125 126 128 128 128 126 124 121 117 115 114 113 111 109 107 105 106 109 114 118 122 126 128 129 131 132 135 138 140 142 146 150 154 158 161 165 165 167 172 176 177 176 173 170 168 168 174 180 179 173 166 173 177 178 179 180 181 181 181 184 187 189 190 191
122 122 122 122 120 121 121 122 121 120 119 118 116 115 113 112 111 110 108 107 106 107 108 112 118 124 127 126 127 127 129 133 138 143 146 150 154 157 161 163 164 162 168 175 178 180 180 178 175 173 173 177 180 178 172 171 174 174 174 175 178 181 182 183 183 185 188 192 193
125 123 121 117 115 115 115 114 115 116 116 116 115 114 112 111 111 111 111 111 110 108 107 108 114 118 121 120 123 126 130 135 140 144 147 150 153 155 157 157 156 161 170 177 180 182 182 181 179 177 177 178 178 174 170 170 171 173 174 175 179 182 183 183 182 185 189 192 193
125 123 120 116 114 113 112 112 114 115 115 113 112 111 110 110 111 112 114 115 113 112 112 113 111 109 111 117 120 123 126 133 139 140 141 142 144 146 146 144 146 160 171 178 181 183 184 183 182 181 179 178 174 170 169 171 172 174 179 183 185 186 186 185 185 187 191 192 192
124 123 120 117 114 112 111 112 113 115 114 113 112 112 112 111 112 113 114 113 113 115 117 116 112 110 112 117 120 122 124 130 134 135 137 139 139 140 138 135 142 160 173 179 182 184 185 185 186 185 182 177 169 164 166 172 173 178 183 189 189 189 188 187 187 190 192 191 189
124 122 119 116 112 111 110 111 113 114 115 115 115 114 113 112 112 111 110 110 111 111 109 105 106 108 108 109 111 114 118 121 125 131 136 139 138 134 128 127 137 161 177 181 183 185 187 189 190 190 186 178 168 162 166 175 178 182 186 189 189 189 189 188 188 189 188 183 180
122 120 117 114 113 112 112 113 114 115 115 114 114 113 111 110 108 105 104 106 110 110 109 106 109 109 107 103 103 105 108 111 117 124 130 132 130 125 120 119 134 165 184 185 184 186 189 192 195 196 192 180 163 157 163 171 176 180 183 183 184 186 188 187 181 177 174 170 169
121 119 117 116 115 115 115 116 115 114 112 111 110 110 110 109 105 101 98 99 103 107 110 111 113 114 114 112 110 108 106 104 105 109 113 117 118 116 114 113 130 177 193 189 188 189 192 196 200 202 196 177 155 148 153 160 165 168 169 169 171 173 173 169 164 162 164 166 167
122 119 117 117 118 119 118 117 116 113 110 107 107 108 110 110 108 105 101 96 94 93 95 97 101 104 107 107 111 112 110 102 96 96 101 108 112 113 113 112 130 199 202 197 195 194 196 199 204 202 188 157 138 134 142 148 151 151 149 148 150 155 158 158 159 163 167 170 172
125 121 119 119 120 121 120 118 116 113 110 108 107 106 106 107 108 108 108 107 98 90 83 79 81 83 83 83 93 103 108 106 102 101 103 108 111 113 114 114 130 219 214 208 204 201 199 200 203 192 166 131 123 126 136 143 145 146 146 146 148 153 157 160 162 165 168 172 176
128 125 123 122 122 122 122 120 117 114 112 112 111 109 106 101 99 102 106 108 101 96 90 85 84 85 85 82 82 90 101 111 113 112 110 112 114 115 117 120 131 240 232 221 212 205 200 199 193 165 134 114 117 126 136 141 143 146 148 150 154 156 157 157 157 159 164 171 180
130 127 126 125 125 124 124 122 118 116 114 115 115 113 110 104 97 95 99 106 102 100 97 90 88 90 91 93 88 84 87 101 110 112 112 110 112 116 121 125 124 294 284 259 229 208 197 194 168 136 118 113 122 130 136 139 142 145 147 149 147 145 143 145 147 154 166 180 189
130 128 127 126 127 126 125 123 120 119 119 118 116 113 110 106 99 93 94 103 107 108 105 96 93 94 98 101 96 85 74 68 83 93 98 96 99 110 120 126 113 340 327 318 291 234 197 187 143 128 122 126 132 137 139 140 141 143 142 138 127 118 112 119 137 161 180 195 202
129 128 127 127 127 127 125 123 122 123 123 121 117 112 106 99 94 88 84 89 103 108 108 103 100 101 103 103 96 83 70 56 56 64 72 73 76 95 109 115 91 17 351 343 338 318 214 169 136 131 131 135 138 140 140 139 138 137 134 129 125 115 102 100 131 173 200 214 217
126 125 125 126 127 126 124 122 122 123 123 121 118 113 107 99 97 93 88 84 90 96 101 101 102 102 101 99 93 84 73 58 50 50 55 59 61 75 86 90 72 34 6 356 356 352 55 143 134 134 135 135 137 137 137 136 135 136 137 139 141 141 136 127 150 196 222 236 237
121 122 122 123 124 124 122 120 120 119 118 115 115 113 109 103 99 95 93 90 89 92 95 97 95 93 91 90 88 83 75 65 52 48 48 53 54 58 64 70 62 40 12 359 6 23 86 125 132 135 137 133 134 134 134 135 136 140 146 151 153 153 153 155 172 192 212 234 263